Location: Salamanca
(40.9670°N, 5.6500°W)
Time: 11:13:01
(UTC+02:00)

Daily predictions for brighter satellites

Satellite Brightness Start Highest point End
(mag) Time Altitude Azimuth Time Altitude Azimuth Time Altitude Azimuth
Cosmos 1980 Rocket 2.2 21:32:59 10° SSW 21:38:35 83° ESE 21:44:12 10° NNE
Cosmos 405 Rocket 3.7 21:38:39 10° NNW 21:42:23 52° W 21:46:10 10° S
Cosmos 1536 4.5 21:40:55 10° SE 21:43:26 16° E 21:45:57 10° NE
Lacrosse 5 rocket 1.2 21:40:50 10° NW 21:44:29 62° NE 21:48:16 10° SE
Cosmos 1782 Rocket 3.9 21:43:23 10° SSW 21:47:41 71° W 21:52:02 10° N
Cosmos 1633 2.5 21:45:19 10° S 21:48:53 69° E 21:52:30 10° NNE
Cosmos 921 Rocket 3.0 21:45:10 10° SSW 21:49:20 83° WNW 21:53:32 10° NNE
Cosmos 676 Rocket 4.0 21:46:22 10° NNW 21:51:43 76° ENE 21:57:01 10° SSE
Resurs 01 Rocket 1.6 21:48:15 10° SSE 21:52:41 78° ENE 21:57:09 10° N
YAOGAN 6 4.0 21:51:12 10° ESE 21:53:52 20° ENE 21:56:33 10° NNE
Cosmos 1697 Rocket 4.1 21:48:56 10° SW 21:54:16 44° WNW 21:59:40 10° NNE
Helios 1B rocket 3.9 21:51:43 10° NE 21:54:30 17° E 21:57:16 10° SE
SeaSat 1 2.6 21:50:50 10° NE 21:55:38 49° ESE 22:00:23 10° S
Cosmos 2026 Rocket 4.1 21:50:30 10° S 21:56:50 90° N 22:03:15 10° N
CZ-4C R/B 4.1 21:52:08 10° NW 21:58:58 42° WSW 22:06:21 10° S
DELTA 2 R/B (1) 3.9 21:55:10 10° W 22:00:38 56° SSW 22:05:41 12° ESE
Atlas Centaur 2 3.6 21:54:08 10° WSW 22:01:34 37° S 22:07:30 12° ESE
Lacrosse 5 2.9 21:59:29 10° S 22:03:25 23° ESE 22:07:21 10° ENE
Cosmos 1975 Rocket 3.9 21:59:36 10° NNW 22:03:59 56° W 22:08:18 10° S
Cosmos 1140 Rocket 3.5 21:59:30 10° NNW 22:04:45 69° ENE 22:09:57 10° SSE
Spot 2 Rocket 3.5 21:59:42 10° SSE 22:04:48 88° ENE 22:09:56 10° NNW
Cosmos 44 3.1 22:00:38 10° NNW 22:05:04 88° WSW 22:09:40 10° SSE
Cosmos 2151 Rocket 3.6 22:01:34 10° S 22:05:51 57° E 22:10:10 10° NNE
Cosmos 1655 Rocket 4.0 21:59:42 10° S 22:05:57 81° E 22:12:19 10° N
MINOTAUR R/B 4.2 22:04:28 10° NNW 22:07:14 71° ENE 22:09:38 13° SSE
CZ-2D R/B 4.1 22:07:06 10° S 22:10:52 52° W 22:14:39 10° NNW
Cosmos 614 Rocket 4.0 22:05:54 10° NNW 22:11:00 67° ENE 22:16:06 10° SSE
ATLAS 3B R/B 4.0 22:05:40 10° NNW 22:11:12 25° NE 22:16:21 11° E
Cosmos 2227 4.3 22:06:38 10° NNW 22:12:17 84° WSW 22:17:56 10° SSE
Cosmos 1954 Rocket 4.1 22:08:09 10° NNW 22:13:30 84° WSW 22:18:49 10° SSE
NOSS 2-3 (D) 4.1 22:14:08 10° S 22:18:30 44° ESE 22:23:27 10° NE
Tiangong 1 1.1 22:18:02 10° WNW 22:20:47 60° N 22:22:25 21° E
Cosmos 839 Rocket 4.3 22:20:27 10° SW 22:26:42 73° WNW 22:32:59 10° NNE
Meteor 1-11 Rocket 3.7 22:21:11 10° S 22:27:02 75° E 22:32:47 10° NNE
Cosmos 1536 Rocket 3.4 22:23:56 10° N 22:28:17 81° E 22:32:30 11° S
Cosmos 1741 Rocket 4.1 22:23:21 10° NNW 22:28:33 60° ENE 22:32:20 18° SE
ERS-1 Rocket 3.8 22:26:22 19° ESE 22:29:14 34° ENE 22:33:44 10° N
H-2A R/B 3.7 22:27:57 14° E 22:29:46 17° ENE 22:32:55 10° NNE
Envisat 3.4 22:28:53 10° S 22:33:54 64° WSW 22:38:58 10° NNW
Helios 1A 3.0 22:31:42 19° SSE 22:34:41 63° ENE 22:38:53 10° N
BREEZE M DEB (TANK) 3.6 22:30:11 10° SW 22:39:17 38° SSE 22:41:04 25° E
CZ-4B DEB 2.9 22:40:53 40° E 22:41:13 42° ENE 22:43:57 10° N
Centaur D AC-29 4.3 22:38:03 10° SSW 22:42:02 12° S 22:44:42 10° SSE
EXPRESS MD2 3.9 22:39:42 10° W 22:42:21 48° NNW 22:47:00 10° NE
ARGOS 3.9 22:41:12 24° ESE 22:43:35 35° ENE 22:48:23 10° N
ATLAS 2AS CENTAUR R/B 3.0 22:37:14 10° SSW 22:44:40 61° ESE 22:52:37 10° NE
Meteor 1-29 3.1 22:41:42 10° NNE 22:45:02 48° E 22:45:56 37° SE
SAR-Lupe-4 4.1 22:44:37 34° ESE 22:45:29 41° ENE 22:48:52 10° N
Cosmos 2322 Rocket 2.3 22:41:29 10° SSW 22:47:11 80° WNW 22:52:55 10° NNE
Cosmos 2263 Rocket 2.2 22:41:44 10° NNW 22:47:26 71° ENE 22:50:44 26° SE
Meteor 1-23 Rocket 4.1 22:46:43 10° N 22:52:18 73° E 22:55:48 23° SSE
Terra 3.9 22:53:31 12° ENE 22:54:02 12° ENE 22:55:55 10° NE
Cosmos 1844 Rocket 4.3 22:50:54 10° N 22:55:04 20° NE 22:57:01 17° ENE
NOSS 2-3 (E) 3.9 22:50:49 10° SW 22:55:28 84° NW 23:00:55 10° NNE
SL-16 R/B 2.6 22:52:10 10° SSW 22:57:46 66° WNW 23:03:26 10° NNE
GPS 2-05 Rocket1 3.9 22:55:15 10° WSW 22:57:51 29° SSW 22:57:51 29° SSW
Cosmos 1110 Rocket 4.0 22:58:32 18° S 23:02:16 56° ESE 23:07:20 10° NNE
SAR-Lupe-1 4.1 23:02:07 53° E 23:02:27 56° ENE 23:05:59 10° N
Cosmos 2322 3.8 23:03:38 24° S 23:06:47 49° ESE 23:12:13 10° NE
Abrixas rocket 4.4 23:05:07 10° NW 23:07:44 21° N 23:09:15 16° NE
Cosmos 2219 Rocket 4.3 23:11:10 11° ENE 23:11:10 11° ENE 23:11:27 10° ENE
Cosmos 1607 4.0 23:04:50 10° NNW 23:11:20 86° ENE 23:14:15 35° SE
Cosmos 2315 Rocket 3.9 23:07:43 10° N 23:14:00 80° E 23:17:15 31° SSE
Cosmos 2266 Rocket 4.3 23:08:23 10° SSW 23:14:21 65° W 23:20:22 10° N
COSMOS 2428 3.7 23:16:29 29° E 23:16:29 29° E 23:20:22 10° NE
Cosmos 1331 Rocket 3.9 23:14:45 28° S 23:17:30 69° ESE 23:22:42 10° NNE
MetOp-B 4.0 23:15:48 38° SSE 23:17:54 82° ENE 23:23:16 10° NNW
Cosmos 1536 4.4 23:15:48 10° SW 23:19:33 35° WNW 23:23:19 10° N
Nadezhda 2 Rocket 4.4 23:16:58 21° S 23:21:17 85° E 23:27:33 10° N
Cosmos 2360 Rocket 2.0 23:15:42 10° SSW 23:21:19 80° ESE 23:26:58 10° NNE
Cosmos 1238 Rocket 4.2 23:15:31 10° N 23:22:08 55° ENE 23:24:01 42° SE
Cosmos 1515 3.7 23:19:21 10° N 23:22:55 69° NE 23:22:55 69° NE
Lacrosse 5 rocket 3.6 23:21:21 10° W 23:23:16 14° WSW 23:24:23 12° SW
Okean 1 Rocket 4.0 23:24:05 13° SSW 23:27:40 45° WNW 23:31:53 10° N
Cosmos 2333 Rocket 4.3 23:32:27 12° ENE 23:32:27 12° ENE 23:33:05 10° ENE
Helios 1B rocket 3.9 23:26:09 10° N 23:29:54 36° WNW 23:33:40 10° SW
SPOT 1/Viking Rocket 3.7 23:29:59 52° ESE 23:30:40 56° ENE 23:35:48 10° N
Okean 1-7 Rocket 3.8 23:28:46 10° NNW 23:33:13 66° W 23:34:12 50° SSW
YAOGAN 11 4.0 23:36:11 71° ENE 23:36:11 71° ENE 23:40:23 10° N
Nimbus 7 Rocket 4.4 23:30:34 10° NNE 23:36:18 53° E 23:36:45 52° ESE
SPOT 5 2.7 23:37:37 70° SSE 23:38:12 86° ENE 23:42:56 10° NNW
Cosmos 1500 3.7 23:39:30 57° N 23:39:30 57° N 23:42:39 10° N
Cosmos 1025 Rocket 3.7 23:37:20 10° NNW 23:41:26 48° W 23:42:13 42° SW
USA 238 DEB 3.8 23:35:06 10° NNW 23:42:12 70° NE 23:44:12 49° ESE
Cosmos 1745 Rocket 4.1 23:42:00 49° E 23:42:15 49° E 23:48:07 10° NNE
USA 238 3.8 23:35:12 10° NNW 23:42:18 70° NE 23:44:18 49° ESE
Lacrosse 5 2.3 23:41:00 10° WSW 23:46:01 60° NW 23:51:03 10° NE
Atlas Centaur 2 3.7 23:44:03 10° WSW 23:50:08 28° SSW 23:50:08 28° SSW
Cosmos 2237 Rocket 4.5 23:55:06 11° ENE 23:55:06 11° ENE 23:55:20 10° NE
BREEZE-M DEB 3.8 23:48:53 10° WNW 23:55:23 42° NNE 23:55:26 42° NNE
